Location: Newark
(54.6833°N, 25.2833°E)
Time: 12:08:43
(UTC+00:00)

Altair - Pass Details

Date: 21 November 2019
Orbit: 1502 x 1682 km, 47.2° (Epoch: 12 December)

Event Time Altitude Azimuth Distance (km) Brightness Sun altitude
Rises 03:14:20 0° 254° (WSW) 4,637 - -23.3°
Reaches altitude 10° 03:17:24 10° 250° (WSW) 3,653 - -22.8°
Exits shadow 03:21:10 27° 240° (WSW) 2,554 8.2 -22.3°
Maximum altitude 03:26:14 55° 177° (S) 1,769 7.8 -21.6°
Drops below altitude 10° 03:35:12 10° 103° (ESE) 3,713 10.7 -20.3°
Sets 03:38:21 0° 99° (E) 4,717 11.7 -19.8°
